GVIPR EIWT-EGFF

Flight info

Callsign GVIPR
Flight time N/A
Altitude 31000
Route PESIT DCT BAKUR/N0424F230 N24 ADHAV P70 AGCAT Q63 BAJJA
Aircraft C25C/M-SDE2E3FGHRWXY/LB1

Departure

Time N/A
Airport EIWT

Arrival

Time 2026-05-04 19:20
Airport Cardiff International Airport (EGFF)
Time Latitude Longitude Altitude Speed Heading
2026-05-04 18:45 52.77494 -5.90947 31528 ft 396 kts 161°
2026-05-04 18:45 52.74754 -5.89818 31412 ft 417 kts 162°
2026-05-04 18:46 52.71874 -5.88652 31306 ft 435 kts 162°
2026-05-04 18:46 52.68883 -5.87443 31198 ft 449 kts 162°
2026-05-04 18:46 52.65810 -5.86174 31127 ft 461 kts 162°
2026-05-04 18:47 52.59477 -5.83595 31119 ft 475 kts 162°
2026-05-04 18:47 52.56260 -5.82295 31119 ft 464 kts 162°
2026-05-04 18:47 52.53257 -5.81091 31119 ft 430 kts 161°
2026-05-04 18:48 52.47535 -5.78740 31106 ft 424 kts 161°
2026-05-04 18:48 52.41794 -5.76408 31092 ft 424 kts 161°
2026-05-04 18:49 52.36223 -5.73459 31106 ft 420 kts 154°
2026-05-04 18:49 52.30717 -5.70210 31109 ft 420 kts 155°
2026-05-04 18:50 52.25225 -5.66950 31110 ft 420 kts 154°
2026-05-04 18:50 52.19734 -5.63710 31105 ft 420 kts 155°
2026-05-04 18:51 52.14233 -5.60468 31113 ft 420 kts 155°
2026-05-04 18:51 52.08724 -5.57237 31102 ft 420 kts 155°
2026-05-04 18:52 52.03233 -5.54015 31103 ft 419 kts 155°
2026-05-04 18:52 51.97751 -5.50812 31103 ft 419 kts 155°
2026-05-04 18:53 51.92319 -5.47563 31092 ft 415 kts 150°
2026-05-04 18:53 51.87516 -5.42539 31097 ft 409 kts 140°
2026-05-04 18:54 51.83031 -5.36905 31094 ft 408 kts 138°
2026-05-04 18:54 51.78590 -5.31189 31095 ft 408 kts 138°
2026-05-04 18:55 51.74161 -5.25478 31090 ft 407 kts 138°
2026-05-04 18:55 51.67521 -5.16915 31080 ft 407 kts 139°
2026-05-04 18:56 51.63871 -5.12114 31080 ft 397 kts 138°
2026-05-04 18:56 51.61840 -5.09435 30881 ft 365 kts 138°
2026-05-04 18:56 51.59935 -5.06945 30496 ft 343 kts 138°
2026-05-04 18:57 51.58127 -5.04589 30116 ft 325 kts 138°
2026-05-04 18:57 51.56407 -5.02359 29523 ft 313 kts 138°
2026-05-04 18:57 51.54749 -5.00139 28832 ft 306 kts 132°
2026-05-04 18:57 51.53630 -4.97327 28155 ft 296 kts 114°
2026-05-04 18:58 51.52913 -4.94269 27501 ft 290 kts 102°
2026-05-04 18:58 51.52607 -4.91083 26864 ft 286 kts 96°
2026-05-04 18:58 51.52415 -4.87935 26245 ft 282 kts 95°
2026-05-04 18:58 51.52262 -4.84820 25634 ft 278 kts 95°
2026-05-04 18:59 51.52124 -4.81686 24783 ft 284 kts 95°
2026-05-04 18:59 51.52012 -4.78501 23981 ft 288 kts 95°
2026-05-04 18:59 51.51927 -4.75258 23115 ft 291 kts 94°
2026-05-04 18:59 51.51853 -4.72004 22200 ft 293 kts 94°
2026-05-04 19:00 51.51774 -4.68726 21311 ft 293 kts 94°
2026-05-04 19:00 51.51699 -4.65456 20435 ft 293 kts 94°
2026-05-04 19:00 51.51617 -4.62199 19617 ft 292 kts 94°
2026-05-04 19:00 51.51536 -4.58948 18794 ft 290 kts 94°
2026-05-04 19:01 51.51447 -4.55716 17949 ft 289 kts 94°
2026-05-04 19:01 51.51360 -4.52513 17052 ft 287 kts 94°
2026-05-04 19:01 51.51265 -4.49319 16165 ft 285 kts 94°
2026-05-04 19:01 51.51256 -4.46158 15322 ft 282 kts 91°
2026-05-04 19:02 51.51252 -4.43030 14496 ft 280 kts 91°
2026-05-04 19:02 51.51251 -4.39916 13667 ft 277 kts 91°
2026-05-04 19:02 51.51242 -4.36846 12772 ft 274 kts 91°
2026-05-04 19:02 51.51228 -4.33808 11903 ft 271 kts 91°
2026-05-04 19:03 51.51206 -4.30797 11051 ft 268 kts 91°
2026-05-04 19:03 51.51187 -4.27816 10227 ft 266 kts 91°
2026-05-04 19:03 51.51148 -4.24868 9360 ft 263 kts 92°
2026-05-04 19:03 51.51048 -4.22003 8399 ft 250 kts 93°
2026-05-04 19:04 51.50885 -4.19281 7412 ft 241 kts 96°
2026-05-04 19:04 51.50695 -4.16736 7021 ft 216 kts 96°
2026-05-04 19:04 51.50519 -4.14534 7010 ft 183 kts 96°
2026-05-04 19:04 51.50367 -4.12638 7005 ft 160 kts 96°
2026-05-04 19:05 51.50233 -4.10963 7003 ft 145 kts 96°
2026-05-04 19:05 51.50105 -4.09387 6963 ft 139 kts 96°
2026-05-04 19:05 51.49987 -4.07889 6926 ft 135 kts 97°
2026-05-04 19:05 51.49868 -4.06332 6951 ft 148 kts 96°
2026-05-04 19:06 51.49731 -4.04607 6928 ft 163 kts 96°
2026-05-04 19:06 51.49561 -4.02360 6767 ft 254 kts 96°
2026-05-04 19:06 51.49347 -3.99584 6214 ft 248 kts 96°
2026-05-04 19:06 51.49128 -3.96836 5351 ft 248 kts 97°
2026-05-04 19:07 51.48907 -3.94100 4485 ft 248 kts 96°
2026-05-04 19:07 51.48689 -3.91413 4040 ft 232 kts 97°
2026-05-04 19:07 51.48497 -3.89001 4003 ft 205 kts 96°
2026-05-04 19:07 51.48313 -3.86785 3745 ft 203 kts 96°
2026-05-04 19:08 51.48128 -3.84507 3335 ft 208 kts 97°
2026-05-04 19:08 51.47929 -3.82193 2931 ft 210 kts 97°
2026-05-04 19:08 51.47730 -3.79885 2531 ft 207 kts 96°
2026-05-04 19:08 51.47538 -3.77672 2121 ft 197 kts 97°
2026-05-04 19:09 51.47374 -3.75540 1741 ft 189 kts 95°
2026-05-04 19:09 51.47241 -3.73510 1631 ft 173 kts 95°
2026-05-04 19:09 51.47154 -3.71755 1794 ft 140 kts 92°
2026-05-04 19:09 51.47115 -3.70245 1573 ft 136 kts 92°
2026-05-04 19:10 51.47051 -3.68710 1424 ft 143 kts 94°
2026-05-04 19:10 51.46999 -3.67073 1366 ft 148 kts 91°
2026-05-04 19:10 51.46937 -3.65476 1485 ft 145 kts 95°
2026-05-04 19:10 51.46820 -3.63840 1508 ft 150 kts 95°
2026-05-04 19:11 51.46707 -3.62192 1609 ft 147 kts 95°
2026-05-04 19:11 51.46680 -3.60511 1511 ft 155 kts 85°
2026-05-04 19:11 51.46824 -3.58830 1653 ft 146 kts 82°
2026-05-04 19:11 51.46872 -3.57199 1678 ft 149 kts 94°
2026-05-04 19:12 51.46540 -3.55626 1641 ft 154 kts 117°
2026-05-04 19:12 51.45489 -3.52663 1348 ft 148 kts 117°
2026-05-04 19:12 51.45019 -3.51269 1393 ft 132 kts 122°
2026-05-04 19:13 51.44551 -3.50016 1312 ft 132 kts 115°
2026-05-04 19:13 51.44124 -3.48707 1245 ft 133 kts 113°
2026-05-04 19:13 51.43728 -3.47389 1206 ft 130 kts 112°
2026-05-04 19:13 51.43364 -3.46129 1179 ft 116 kts 113°
2026-05-04 19:14 51.42991 -3.44906 1108 ft 126 kts 115°
2026-05-04 19:14 51.42598 -3.43892 1000 ft 99 kts 122°
2026-05-04 19:14 51.42225 -3.42664 1102 ft 125 kts 111°
2026-05-04 19:14 51.41905 -3.41535 1010 ft 103 kts 117°
2026-05-04 19:15 51.41561 -3.40480 763 ft 108 kts 117°
2026-05-04 19:15 51.41212 -3.39345 666 ft 126 kts 116°
2026-05-04 19:15 51.40859 -3.38152 577 ft 103 kts 115°
2026-05-04 19:15 51.40530 -3.37124 405 ft 106 kts 115°
2026-05-04 19:16 51.40194 -3.36050 311 ft 109 kts 114°
2026-05-04 19:16 51.39871 -3.34989 223 ft 101 kts 111°
2026-05-04 19:16 51.39560 -3.34044 224 ft 102 kts 118°
2026-05-04 19:16 51.39158 -3.32808 728 ft 130 kts 113°
2026-05-04 19:17 51.38735 -3.31215 1667 ft 173 kts 111°
2026-05-04 19:17 51.37644 -3.30176 2684 ft 225 kts 186°
2026-05-04 19:17 51.36259 -3.31463 3321 ft 221 kts 220°
2026-05-04 19:17 51.35589 -3.33425 3310 ft 193 kts 265°
2026-05-04 19:18 51.35844 -3.35408 3158 ft 183 kts 298°
2026-05-04 19:18 51.36501 -3.37159 2780 ft 183 kts 307°
2026-05-04 19:18 51.37328 -3.38784 2244 ft 196 kts 315°
2026-05-04 19:18 51.38356 -3.40252 1933 ft 199 kts 333°
2026-05-04 19:19 51.39582 -3.40867 1920 ft 175 kts
2026-05-04 19:19 51.40621 -3.40222 1615 ft 147 kts 36°
2026-05-04 19:19 51.41149 -3.39218 1398 ft 109 kts 79°
2026-05-04 19:19 51.40864 -3.38127 833 ft 112 kts 120°
2026-05-04 19:20 51.40500 -3.37075 487 ft 101 kts 112°
2026-05-04 19:20 51.40218 -3.36123 286 ft 89 kts 114°
2026-05-04 19:20 51.39965 -3.35298 208 ft 64 kts 110°
2026-05-04 19:20 51.39837 -3.34890 212 ft 35 kts 118°
2026-05-04 19:21 51.39831 -3.34725 216 ft 19 kts 31°
2026-05-04 19:21 51.39922 -3.34660 216 ft 9 kts 41°
2026-05-04 19:21 51.39932 -3.34602 217 ft 3 kts 104°
2026-05-04 19:21 51.39917 -3.34550 218 ft 9 kts 117°
2026-05-04 19:22 51.39887 -3.34468 218 ft 9 kts 111°
2026-05-04 19:22 51.39863 -3.34368 218 ft 11 kts 114°
2026-05-04 19:22 51.39874 -3.34273 217 ft 6 kts 30°
2026-05-04 19:22 51.39910 -3.34292 217 ft 6 kts 293°
2026-05-04 19:23 51.39923 -3.34335 217 ft 7 kts 297°
2026-05-04 19:23 51.39925 -3.34338 217 ft 0 kts 297°